Flag for Belgium Weather past 2 weeks in Liège, Belgium

Now
46 °F

Partly sunny.


Feels Like: 44 °F
Forecast: 36 / 54 °F
Wind: 6 mph from Southwest

Location: Bierset

Current Time: Mar 6, 2015 at 5:02:51 PM

Latest Report: Mar 6, 2015 at 4:20 PM


Visibility: N/A

Pressure: 30.54 "Hg

Humidity: 62%

Dew point: 34 °F

Location of LiègeLocation

Historic Weather in Liège — Graph

°F

Liège temperature yesterday

Maximum temperature yesterday: 46 °F (at 3:20 PM)
Minimum temperature yesterday: 36 °F (at 2:50 AM)
Average temperature yesterday: 40 °F

Past Weeks' High & Low Weather Summary

 TemperatureHumidityPressure
High50 °F (Mar 1, 11:50 AM)100% (Feb 22, 6:20 AM)30.69 "Hg (Feb 22, 6:20 AM)
Low30 °F (Feb 28, 3:20 AM)49% (Feb 28, 3:50 PM)29.36 "Hg (Feb 23, 3:20 PM)
Average39 °F81%29.94 "Hg
* Reported Feb 19 3:20 PM — Mar 6 3:50 PM, Liège, Weather by CustomWeather, © 2015

Note: Actual official high and low records may vary slightly from our data, if they occured in-between our weather recording intervals... More about our weather records

Advertising

Liège weather history for previous 24 hours

 ConditionsComfort  
Time TempWeatherWind HumidityBarometerVisibility
3:50 PM
Fri, Mar 6
46 °FPartly sunny.5 mph66%30.57 "HgN/A
3:20 PM46 °FScattered clouds.6 mph66%30.57 "HgN/A
2:50 PM46 °FScattered clouds.7 mph62%30.57 "HgN/A
2:20 PM46 °FPassing clouds.8 mph62%30.57 "HgN/A
1:50 PM46 °FPassing clouds.10 mph62%30.57 "HgN/A
1:20 PM46 °FPassing clouds.10 mph53%30.60 "HgN/A
12:50 PM46 °FPassing clouds.10 mph57%30.60 "HgN/A
12:20 PM45 °FPassing clouds.10 mph61%30.63 "HgN/A
11:50 AM45 °FPassing clouds.13 mph61%30.63 "HgN/A
11:20 AM45 °FPassing clouds.13 mph66%30.63 "HgN/A
10:50 AM45 °FScattered clouds.10 mph71%30.63 "HgN/A
10:20 AM41 °FScattered clouds.10 mph76%30.63 "HgN/A
9:50 AM41 °FScattered clouds.9 mph76%30.63 "HgN/A
9:20 AM37 °FScattered clouds.8 mph81%30.63 "Hg5 mi
8:50 AM36 °FScattered clouds.7 mph87%30.63 "Hg4 mi
8:20 AM36 °FPartly sunny.7 mph81%30.63 "Hg4 mi
7:50 AM34 °FPartly sunny.8 mph87%30.63 "Hg4 mi
7:20 AM34 °FPartly sunny.7 mph87%30.63 "Hg4 mi
6:50 AM34 °FFog.7 mph87%30.63 "Hg3 mi
6:20 AM34 °FPassing clouds.6 mph87%30.63 "Hg4 mi
5:50 AM34 °FPassing clouds.6 mph87%30.63 "Hg5 mi
5:20 AM36 °FPassing clouds.6 mph81%30.63 "HgN/A
4:50 AM36 °FPassing clouds.7 mph81%30.63 "HgN/A
4:20 AM36 °FClear.7 mph81%30.63 "Hg6 mi
3:50 AM36 °FClear.5 mph81%30.63 "Hg6 mi
3:20 AM36 °FClear.6 mph81%30.63 "Hg6 mi
2:50 AM34 °FClear.7 mph87%30.63 "Hg4 mi
2:20 AM36 °FClear.6 mph87%30.63 "Hg5 mi
1:50 AM36 °FClear.5 mph87%30.63 "Hg10 mi
1:20 AM37 °FPassing clouds.5 mph81%30.63 "HgN/A
12:50 AM37 °FPassing clouds.3 mph81%30.63 "HgN/A
12:20 AM37 °FPassing clouds.6 mph81%30.63 "HgN/A
11:50 PM
Thu, Mar 5
37 °FClear.5 mph81%30.63 "Hg5 mi
11:20 PM36 °FClear.6 mph87%30.66 "Hg10 mi
10:50 PM36 °FClear.5 mph87%30.66 "Hg10 mi
10:20 PM36 °FClear.3 mph87%30.66 "Hg10 mi
9:50 PM39 °FPassing clouds.2 mph81%30.63 "HgN/A
9:20 PM39 °FPassing clouds.2 mph81%30.63 "HgN/A
8:50 PM41 °FPassing clouds.2 mph76%30.63 "HgN/A
8:20 PM41 °FPassing clouds.3 mph76%30.63 "HgN/A
7:50 PM41 °FPassing clouds.3 mph76%30.63 "HgN/A
7:20 PM41 °FPassing clouds.3 mph81%30.63 "HgN/A
6:50 PM43 °FPassing clouds.2 mph71%30.63 "HgN/A
6:20 PM45 °FPartly sunny.3 mph61%30.63 "HgN/A
5:50 PM45 °FScattered clouds.5 mph66%30.63 "HgN/A
5:20 PM45 °FPassing clouds.6 mph61%30.63 "HgN/A
Weather by CustomWeather, © 2015

See weather overviewHow to use our weather pages